PAF5320 RPVM-RPVP

Flight info

Callsign PAF5320
Flight time N/A
Altitude 8000
Route MCT DCT GAYUD W291 KALAH DCT PR
Aircraft C208/L-SDFGR/C

Departure

Time 2026-05-07 09:20
Airport Mactan Cebu International Airport (RPVM)

Arrival

Time N/A
Airport Puerto Princesa International Airport / PAF Antonio Bautista Air Base (RPVP)
Time Latitude Longitude Altitude Speed Heading
2026-05-07 09:11 10.30922 123.97569 36 ft 0 kts 225°
2026-05-07 09:16 10.30917 123.97564 36 ft 5 kts 219°
2026-05-07 09:16 10.30844 123.97521 36 ft 19 kts 200°
2026-05-07 09:17 10.30727 123.97508 36 ft 12 kts 224°
2026-05-07 09:17 10.30665 123.97448 36 ft 12 kts 228°
2026-05-07 09:17 10.30602 123.97386 36 ft 13 kts 223°
2026-05-07 09:17 10.30522 123.97304 36 ft 21 kts 223°
2026-05-07 09:18 10.30404 123.97185 36 ft 17 kts 224°
2026-05-07 09:18 10.30324 123.97191 36 ft 12 kts 133°
2026-05-07 09:18 10.30262 123.97256 36 ft 13 kts 135°
2026-05-07 09:18 10.30196 123.97325 36 ft 14 kts 122°
2026-05-07 09:19 10.30207 123.97391 36 ft 0 kts 43°
2026-05-07 09:19 10.30213 123.97397 36 ft 12 kts 37°
2026-05-07 09:19 10.30397 123.97582 36 ft 60 kts 45°
2026-05-07 09:19 10.30769 123.97961 75 ft 85 kts 44°
2026-05-07 09:20 10.31184 123.98394 261 ft 85 kts 40°
2026-05-07 09:20 10.31607 123.98820 462 ft 88 kts 41°
2026-05-07 09:20 10.32048 123.99246 689 ft 85 kts 41°
2026-05-07 09:20 10.32457 123.99656 917 ft 82 kts 40°
2026-05-07 09:21 10.32898 124.00066 1016 ft 89 kts 41°
2026-05-07 09:21 10.33397 124.00456 1123 ft 99 kts 36°
2026-05-07 09:21 10.34007 124.00866 1224 ft 110 kts 39°
2026-05-07 09:21 10.34607 124.01379 1395 ft 114 kts 39°
2026-05-07 09:22 10.35158 124.01934 1627 ft 111 kts 58°
2026-05-07 09:22 10.35209 124.02699 1870 ft 113 kts 106°
2026-05-07 09:22 10.34710 124.03320 2117 ft 119 kts 140°
2026-05-07 09:22 10.33934 124.03641 2353 ft 124 kts 161°
2026-05-07 09:23 10.33055 124.03733 2535 ft 132 kts 174°
2026-05-07 09:23 10.32132 124.03712 2779 ft 136 kts 175°
2026-05-07 09:23 10.31212 124.03699 3080 ft 132 kts 177°
2026-05-07 09:23 10.30290 124.03581 3283 ft 135 kts 184°
2026-05-07 09:24 10.29385 124.03371 3519 ft 132 kts 187°
2026-05-07 09:24 10.28504 124.03115 3761 ft 131 kts 191°
2026-05-07 09:24 10.27716 124.02607 3920 ft 143 kts 229°
2026-05-07 09:24 10.27461 124.01634 4093 ft 148 kts 279°
2026-05-07 09:25 10.27827 124.00659 4257 ft 148 kts 300°
2026-05-07 09:25 10.28220 123.99698 4476 ft 148 kts 286°
2026-05-07 09:25 10.28512 123.98669 4633 ft 154 kts 291°
2026-05-07 09:25 10.28865 123.97646 4844 ft 152 kts 294°
2026-05-07 09:26 10.29306 123.96670 5037 ft 152 kts 299°
2026-05-07 09:26 10.29770 123.95707 5228 ft 152 kts 299°
2026-05-07 09:26 10.30161 123.94720 5412 ft 155 kts 279°
2026-05-07 09:26 10.30003 123.93658 5586 ft 154 kts 253°
2026-05-07 09:27 10.29815 123.92583 5754 ft 155 kts 256°
2026-05-07 09:27 10.29536 123.91530 5917 ft 155 kts 252°
2026-05-07 09:27 10.29024 123.89389 6282 ft 156 kts 252°
2026-05-07 09:28 10.28763 123.88319 6456 ft 156 kts 255°
2026-05-07 09:28 10.28405 123.87284 6615 ft 155 kts 243°
2026-05-07 09:28 10.28009 123.86258 6775 ft 156 kts 248°
2026-05-07 09:28 10.27642 123.85217 6947 ft 157 kts 245°
2026-05-07 09:29 10.27245 123.84185 7104 ft 158 kts 246°
2026-05-07 09:29 10.26864 123.83138 7271 ft 158 kts 246°
2026-05-07 09:29 10.26474 123.82095 7435 ft 158 kts 245°
2026-05-07 09:29 10.26091 123.81064 7600 ft 158 kts 246°
2026-05-07 09:30 10.25701 123.80017 7737 ft 159 kts 246°
2026-05-07 09:30 10.25308 123.78960 7895 ft 160 kts 246°
2026-05-07 09:30 10.24915 123.77897 7997 ft 165 kts 246°
2026-05-07 09:30 10.24503 123.76782 8005 ft 172 kts 247°
2026-05-07 09:31 10.24076 123.75621 8008 ft 177 kts 246°
2026-05-07 09:31 10.23636 123.74444 8005 ft 179 kts 246°
2026-05-07 09:31 10.23194 123.73256 8007 ft 181 kts 246°
2026-05-07 09:31 10.22749 123.72049 8008 ft 183 kts 247°
2026-05-07 09:32 10.22301 123.70843 8000 ft 182 kts 246°
2026-05-07 09:32 10.21855 123.69651 7994 ft 183 kts 247°
2026-05-07 09:32 10.21403 123.68440 8001 ft 184 kts 246°
2026-05-07 09:32 10.20950 123.67224 8001 ft 184 kts 247°
2026-05-07 09:33 10.20504 123.66008 8000 ft 183 kts 247°
2026-05-07 09:33 10.20052 123.64800 8001 ft 183 kts 246°
2026-05-07 09:33 10.19600 123.63590 7999 ft 183 kts 246°
2026-05-07 09:33 10.19149 123.62376 7997 ft 184 kts 246°
2026-05-07 09:34 10.18703 123.61179 7993 ft 183 kts 247°
2026-05-07 09:34 10.18259 123.59977 7992 ft 181 kts 247°
2026-05-07 09:34 10.17809 123.58780 7990 ft 181 kts 246°
2026-05-07 09:34 10.17363 123.57577 7994 ft 183 kts 247°
2026-05-07 09:35 10.16913 123.56369 8000 ft 184 kts 246°
2026-05-07 09:35 10.16462 123.55153 7997 ft 184 kts 246°
2026-05-07 09:35 10.16012 123.53946 7992 ft 181 kts 246°
2026-05-07 09:35 10.15563 123.52746 7992 ft 181 kts 246°
2026-05-07 09:36 10.15115 123.51547 7994 ft 182 kts 246°
2026-05-07 09:36 10.14670 123.50341 7994 ft 182 kts 246°
2026-05-07 09:36 10.14219 123.49139 7996 ft 183 kts 246°
2026-05-07 09:36 10.13773 123.47931 7996 ft 183 kts 246°
2026-05-07 09:37 10.13319 123.46725 7999 ft 183 kts 246°
2026-05-07 09:37 10.12871 123.45514 7997 ft 183 kts 246°
2026-05-07 09:37 10.12419 123.44307 7999 ft 183 kts 246°
2026-05-07 09:37 10.11969 123.43096 8004 ft 183 kts 246°
2026-05-07 09:38 10.11518 123.41887 8003 ft 183 kts 246°
2026-05-07 09:38 10.11070 123.40691 8001 ft 183 kts 247°
2026-05-07 09:38 10.10621 123.39479 7998 ft 183 kts 246°
2026-05-07 09:38 10.10168 123.38273 8001 ft 183 kts 246°
2026-05-07 09:39 10.09721 123.37065 8002 ft 183 kts 246°
2026-05-07 09:39 10.09265 123.35855 8001 ft 184 kts 246°
2026-05-07 09:39 10.08816 123.34640 8002 ft 183 kts 246°
2026-05-07 09:39 10.08362 123.33434 8002 ft 183 kts 246°
2026-05-07 09:40 10.07914 123.32227 8001 ft 183 kts 247°
2026-05-07 09:40 10.07463 123.31022 8002 ft 183 kts 246°
2026-05-07 09:40 10.07011 123.29814 8000 ft 183 kts 247°
2026-05-07 09:40 10.06562 123.28603 7999 ft 183 kts 246°
2026-05-07 09:41 10.06108 123.27396 7999 ft 183 kts 247°
2026-05-07 09:41 10.05660 123.26187 7999 ft 183 kts 246°
2026-05-07 09:41 10.05204 123.24978 8004 ft 184 kts 247°
2026-05-07 09:41 10.04754 123.23762 7997 ft 185 kts 246°
2026-05-07 09:42 10.04298 123.22543 7995 ft 184 kts 246°
2026-05-07 09:42 10.03844 123.21331 7996 ft 184 kts 246°
2026-05-07 09:42 10.03386 123.20112 7996 ft 186 kts 247°
2026-05-07 09:42 10.02932 123.18885 8000 ft 186 kts 247°
2026-05-07 09:43 10.02473 123.17657 7996 ft 186 kts 246°
2026-05-07 09:43 10.02018 123.16449 7995 ft 186 kts 247°
2026-05-07 09:43 10.01560 123.15220 7996 ft 185 kts 246°
2026-05-07 09:43 10.01106 123.14003 7972 ft 182 kts 246°
2026-05-07 09:44 10.00659 123.12821 7990 ft 179 kts 246°
2026-05-07 09:44 10.00218 123.11638 7994 ft 181 kts 246°
2026-05-07 09:44 9.99764 123.10430 7989 ft 185 kts 247°
2026-05-07 09:44 9.99326 123.09226 7986 ft 178 kts 247°
2026-05-07 09:45 9.98875 123.08068 7994 ft 178 kts 246°
2026-05-07 09:45 9.98438 123.06881 7992 ft 181 kts 247°
2026-05-07 09:45 9.97991 123.05679 7992 ft 184 kts 246°
2026-05-07 09:45 9.97532 123.04460 7997 ft 185 kts 246°
2026-05-07 09:46 9.97075 123.03230 7996 ft 186 kts 246°
2026-05-07 09:46 9.96624 123.02023 7982 ft 180 kts 246°
2026-05-07 09:46 9.96184 123.00865 7991 ft 173 kts 245°
2026-05-07 09:46 9.95749 122.99716 7993 ft 177 kts 247°
2026-05-07 09:47 9.95314 122.98530 7993 ft 182 kts 246°
2026-05-07 09:47 9.94863 122.97323 7999 ft 183 kts 246°
2026-05-07 09:47 9.94417 122.96134 8001 ft 182 kts 247°
2026-05-07 09:47 9.93959 122.94913 7993 ft 183 kts 246°
2026-05-07 09:48 9.93510 122.93719 7994 ft 182 kts 247°
2026-05-07 09:48 9.93059 122.92513 7996 ft 183 kts 246°
2026-05-07 09:48 9.92608 122.91302 7992 ft 183 kts 246°
2026-05-07 09:48 9.92149 122.90090 7993 ft 184 kts 246°
2026-05-07 09:49 9.91694 122.88870 7997 ft 185 kts 246°
2026-05-07 09:49 9.91245 122.87673 7995 ft 183 kts 246°
2026-05-07 09:49 9.90795 122.86470 7995 ft 181 kts 246°
2026-05-07 09:49 9.90345 122.85272 7994 ft 183 kts 247°
2026-05-07 09:50 9.89886 122.84062 7997 ft 184 kts 246°
2026-05-07 09:50 9.89432 122.82836 7982 ft 185 kts 247°
2026-05-07 09:50 9.89122 122.82011 7989 ft 186 kts 246°
2026-05-07 09:50 9.88511 122.80387 7986 ft 185 kts 247°
2026-05-07 09:51 9.88209 122.79578 7985 ft 185 kts 247°
2026-05-07 09:51 9.87751 122.78361 7988 ft 185 kts 247°
2026-05-07 09:51 9.87284 122.77124 7983 ft 184 kts 247°
2026-05-07 09:51 9.86683 122.75509 7984 ft 185 kts 246°
2026-05-07 09:52 9.86377 122.74701 7988 ft 185 kts 247°
2026-05-07 09:52 9.85922 122.73482 7985 ft 185 kts 247°
2026-05-07 09:52 9.85312 122.71867 7977 ft 185 kts 247°
2026-05-07 09:52 9.85003 122.71046 7978 ft 184 kts 247°
2026-05-07 09:53 9.84550 122.69831 7979 ft 184 kts 247°
2026-05-07 09:53 9.84094 122.68626 7979 ft 182 kts 248°
2026-05-07 09:53 9.83645 122.67424 7980 ft 183 kts 247°
2026-05-07 09:53 9.83189 122.66220 7979 ft 183 kts 246°
2026-05-07 09:54 9.82745 122.65026 7979 ft 183 kts 247°
2026-05-07 09:54 9.82288 122.63821 7979 ft 183 kts 247°
2026-05-07 09:54 9.81835 122.62612 7977 ft 183 kts 247°
2026-05-07 09:54 9.81381 122.61403 7978 ft 184 kts 247°
2026-05-07 09:55 9.80927 122.60194 7977 ft 184 kts 247°
2026-05-07 09:55 9.80469 122.58983 7979 ft 184 kts 247°
2026-05-07 09:55 9.80016 122.57769 7978 ft 184 kts 247°
2026-05-07 09:55 9.79556 122.56555 7974 ft 184 kts 247°
2026-05-07 09:56 9.79101 122.55339 7978 ft 184 kts 247°
2026-05-07 09:56 9.78646 122.54129 7976 ft 183 kts 246°
2026-05-07 09:56 9.78191 122.52925 7972 ft 183 kts 247°
2026-05-07 09:56 9.77739 122.51719 7975 ft 183 kts 247°
2026-05-07 09:57 9.77282 122.50516 7979 ft 183 kts 247°
2026-05-07 09:57 9.76982 122.49714 7980 ft 183 kts 247°
2026-05-07 09:57 9.76528 122.48504 7979 ft 183 kts 247°
2026-05-07 09:58 9.74079 122.42006 7981 ft 182 kts 247°
2026-05-07 09:59 9.73933 122.41616 7977 ft 183 kts 246°
2026-05-07 09:59 9.72202 122.37020 7980 ft 183 kts 249°
2026-05-07 10:00 9.72086 122.35766 7975 ft 182 kts 277°
2026-05-07 10:00 9.72144 122.34485 7973 ft 182 kts 269°
2026-05-07 10:00 9.72108 122.33199 7980 ft 183 kts 271°
2026-05-07 10:00 9.72136 122.31912 7979 ft 183 kts 272°
2026-05-07 10:01 9.72144 122.31042 7980 ft 183 kts 271°